{"data":{"norad_id":62267,"intl_designator":"2024-237A","name":"STARLINK-11496 [DTC]","alt_names":[],"object_type":"PAYLOAD","status":"ACTIVE","operator":null,"country":"US","launch_date":"2024-12-08","launch_site_code":"AFETR","launch_vehicle":null,"mission":null,"orbit_class":"UNKNOWN","rcs_meters":null,"size_class":null,"mass_kg":null,"dimensions":null,"purposes":["comms"],"wikipedia_slug":null,"has_3d_model":false,"image_url":null,"decayed_at":null,"tle_current":{"epoch":"2026-09-21T10:21:24.716448Z","epoch_age_seconds":97230,"freshness":"FRESH","line1":"1 62267U 24237A   26264.43153607  .00095876  00000+0  74072-3 0  9997","line2":"2 62267  43.0021 317.0810 0002163 260.9102  99.1521 15.70883019103831","mean_motion":15.70883019,"eccentricity":0.0002163,"inclination_deg":43.0021,"raan_deg":317.081,"arg_perigee_deg":260.9102,"mean_anomaly_deg":99.1521,"bstar":0.00074072,"rev_number":10383,"period_min":91.668188056211,"perigee_km":354.91543370136,"apogee_km":357.82878234148,"semimajor_km":6734.5091080214,"source":"CELESTRAK","updated_at":"2026-09-22T09:00:49.565520Z"}}}